IK0AOC Rome IT current weather conditions

sailwx.info

Wind from 144 at 2 knots gusting 13

Air temperature 16.1° C
Dewpoint 12.5° C

Last reported at 2019-Dec-15 15:05 UTC.
Time now 2019-Dec-15 15:32 UTC

Location: N 41°47' E 012°27'.
View on Google Maps.

See reports from other nearby stations

  
Tides and Currents Weather Stations Pressure Air Temp Water Temp Dewpoint Dewpoint Depression Visibility Wind Speed Wind Dir Waves Ship Positions
date/time (UTC)wind fromknots sea level pressurealtimeterstation pressurevisibilityair tempwater tempwave heightnotes
2019-Dec-15 15:05 144 2 gusting 13 16.1
2019-Dec-15 14:55 143 0 gusting 5 16.7
2019-Dec-15 14:50 115 16.7
2019-Dec-15 14:40 135 0 gusting 6 16.7
2019-Dec-15 14:35 136 2 gusting 11 16.7
2019-Dec-15 14:15 132 1 gusting 10 16.7
2019-Dec-15 13:55 166 16.7
2019-Dec-15 13:50 136 0 gusting 7 16.7
2019-Dec-15 13:45 153 16.7
2019-Dec-15 13:05 153 0 gusting 11 16.7
2019-Dec-15 12:55 149 1 gusting 11 16.7
2019-Dec-15 12:45 171 16.7
2019-Dec-15 12:40 140 2 gusting 14 16.7
2019-Dec-15 12:35 137 5 gusting 13 17.2
2019-Dec-15 12:10 148 2 gusting 22 17.2
2019-Dec-15 11:45 153 4 gusting 19 16.7
2019-Dec-15 11:35 170 5 gusting 17 16.7
2019-Dec-15 11:05 173 8 gusting 22 16.7
2019-Dec-15 11:00 139 2 gusting 11 16.7
2019-Dec-15 10:50 160 1 gusting 14 16.1
2019-Dec-15 10:25 127 0 gusting 10 15.6
2019-Dec-15 10:20 121 1 gusting 8 15.6
2019-Dec-15 10:10 168 2 gusting 10 15.0
2019-Dec-15 10:00 132 3 gusting 10 15.0
2019-Dec-15 09:50 142 5 gusting 11 15.0
2019-Dec-15 09:45 161 1 gusting 8 14.4
2019-Dec-15 09:40 187 0 gusting 19 14.4
2019-Dec-15 09:30 186 3 gusting 12 14.4
2019-Dec-15 09:25 164 6 gusting 18 14.4
2019-Dec-15 09:15 177 5 gusting 22 13.9
2019-Dec-15 09:05 143 4 gusting 15 13.9
2019-Dec-15 09:00 156 7 gusting 15 13.9
2019-Dec-15 08:50 162 3 gusting 11 13.3
2019-Dec-15 08:35 126 4 gusting 13 13.3
2019-Dec-15 07:55 152 1 gusting 8 12.8
2019-Dec-15 07:40 134 3 gusting 11 12.8
2019-Dec-15 07:35 145 1 gusting 10 12.2
2019-Dec-15 07:25 154 1 gusting 10 12.2
2019-Dec-15 07:20 161 1 gusting 8 12.2
2019-Dec-15 07:00 144 6 gusting 13 11.7
2019-Dec-15 06:45 161 6 gusting 13 11.1
2019-Dec-15 06:15 160 6 gusting 11 11.1
2019-Dec-15 05:15 147 8.9
2019-Dec-15 05:10 163 8.3
2019-Dec-15 04:15 096 7.2
2019-Dec-15 04:10 098 7.2
2019-Dec-15 04:05 063 7.2
2019-Dec-15 04:00 065 7.2
2019-Dec-15 03:55 070 7.2
2019-Dec-15 03:50 086 7.2
2019-Dec-15 03:45 077 7.2
2019-Dec-15 03:35 054 7.2
2019-Dec-15 03:25 030 7.2
2019-Dec-15 03:20 030 7.2
2019-Dec-15 03:10 036 7.2
2019-Dec-15 02:55 052 7.2
2019-Dec-15 02:40 056 7.2
2019-Dec-15 02:25 053 7.2
2019-Dec-15 02:20 052 7.2
2019-Dec-15 02:10 036 7.2
2019-Dec-15 02:00 053 7.2
2019-Dec-15 01:40 052 7.8
2019-Dec-15 01:35 044 7.8
2019-Dec-15 01:20 056 7.8
2019-Dec-15 01:00 075 7.8
2019-Dec-15 00:55 072 7.8
2019-Dec-15 00:50 084 7.8
2019-Dec-15 00:45 078 7.8
2019-Dec-15 00:30 064 8.3
2019-Dec-15 00:20 051 7.8
2019-Dec-15 00:05 055 7.8
2019-Dec-14 23:45 055 7.8
2019-Dec-14 23:40 068 7.8
2019-Dec-14 23:35 074 8.3
2019-Dec-14 23:30 063 8.3
2019-Dec-14 23:25 041 8.3
2019-Dec-14 23:20 036 8.3
2019-Dec-14 23:05 039 8.3
2019-Dec-14 23:00 041 8.3
2019-Dec-14 22:25 056 10.0
2019-Dec-14 22:20 056 10.0
2019-Dec-14 22:10 154 8.9
2019-Dec-14 22:05 154 8.3
2019-Dec-14 22:00 154 8.3
2019-Dec-14 21:50 154 8.3
2019-Dec-14 21:45 154 8.3
2019-Dec-14 21:40 170 8.3
2019-Dec-14 21:30 9.4
2019-Dec-14 21:20 10.0
2019-Dec-14 21:00 268 9.4
2019-Dec-14 20:45 216 10.6
2019-Dec-14 20:25 171 10.6
2019-Dec-14 20:10 171 10.0
2019-Dec-14 20:00 171 10.0
2019-Dec-14 19:55 171 10.0
2019-Dec-14 19:45 084 10.0
2019-Dec-14 19:40 084 10.0
2019-Dec-14 19:10 053 10.0
2019-Dec-14 18:15 317 12.2
2019-Dec-14 18:05 292 12.2
2019-Dec-14 17:45 270 12.8
2019-Dec-14 17:20 274 2 gusting 6 12.8
2019-Dec-14 17:10 290 0 gusting 5 12.8
2019-Dec-14 17:00 255 12.8
2019-Dec-14 16:50 274 13.3
2019-Dec-14 16:45 277 13.3
2019-Dec-14 16:40 294 13.3
2019-Dec-14 16:35 316 13.9
2019-Dec-14 16:25 284 13.9
2019-Dec-14 16:15 284 13.9
2019-Dec-14 16:10 302 14.4
2019-Dec-14 16:00 333 14.4
2019-Dec-14 15:45 355 14.4
2019-Dec-14 15:40 350 14.4
2019-Dec-14 15:20 15.0
2019-Dec-14 15:15 011 15.0
2019-Dec-14 14:15 023 0 gusting 5 15.6
2019-Dec-14 14:10 001 1 gusting 5 15.6
2019-Dec-14 14:05 035 15.6
2019-Dec-14 13:20 015 15.6
2019-Dec-14 13:05 330 0 gusting 10 15.6
2019-Dec-14 13:00 007 15.6
2019-Dec-14 12:55 005 15.0
2019-Dec-14 12:50 004 15.6
2019-Dec-14 12:45 353 15.6
2019-Dec-14 12:40 256 15.6
2019-Dec-14 12:15 317 15.0
2019-Dec-14 12:05 312 14.4
2019-Dec-14 12:00 328 1 gusting 11 15.0
2019-Dec-14 11:55 270 14.4
2019-Dec-14 11:45 005 13.9
2019-Dec-14 11:40 005 13.9
2019-Dec-14 11:35 343 13.9
2019-Dec-14 11:30 042 1 gusting 7 13.9
2019-Dec-14 11:25 004 0 gusting 4 13.3
2019-Dec-14 11:10 002 6 gusting 13 12.8
2019-Dec-14 11:05 007 0 gusting 8 12.8
2019-Dec-14 10:50 004 6 gusting 14 12.2
2019-Dec-14 10:40 12.2
2019-Dec-14 10:35 003 6 gusting 17 12.2
2019-Dec-14 10:30 008 11 gusting 15 11.7
2019-Dec-14 09:50 043 8 gusting 18 11.1
2019-Dec-14 09:40 016 3 gusting 17 10.6
2019-Dec-14 09:35 038 11 gusting 17 10.6
2019-Dec-14 09:30 025 4 gusting 13 10.6
2019-Dec-14 09:25 004 6 gusting 11 10.0
2019-Dec-14 09:20 007 1 gusting 13 10.0
2019-Dec-14 09:00 017 1 gusting 19 8.9
2019-Dec-14 08:55 033 9 gusting 20 8.9
2019-Dec-14 08:40 033 12 gusting 19 8.3
2019-Dec-14 08:20 011 7.8
2019-Dec-14 08:15 024 7.8
2019-Dec-14 08:05 031 2 gusting 12 7.8
2019-Dec-14 07:55 015 0 gusting 11 7.8
2019-Dec-14 07:45 032 1 gusting 18 7.2
2019-Dec-14 07:40 035 13 gusting 18 7.2
2019-Dec-14 07:35 027 7 gusting 15 7.2
2019-Dec-14 07:30 033 11 gusting 14 7.2
2019-Dec-14 07:25 032 11 gusting 18 7.2
2019-Dec-14 07:10 029 0 gusting 14 7.2
2019-Dec-14 07:00 025 13 gusting 19 7.2
2019-Dec-14 06:25 032 15 gusting 19 7.8
2019-Dec-14 06:10 310 8 gusting 10 7.8
2019-Dec-14 05:45 331 7.8
2019-Dec-14 05:40 277 7.8
2019-Dec-14 05:35 319 7.8
2019-Dec-14 05:25 280 7 gusting 10 7.8
2019-Dec-14 05:20 280 8 gusting 19 7.8
2019-Dec-14 05:10 251 6 gusting 15 9.4
2019-Dec-14 04:55 339 14 gusting 25 9.4
2019-Dec-14 04:45 333 12 gusting 17 9.4
2019-Dec-14 04:30 323 13 gusting 21 8.9
2019-Dec-14 04:25 327 12 gusting 22 8.9
2019-Dec-14 04:15 338 14 gusting 25 8.9
2019-Dec-14 04:05 325 20 gusting 26 8.9
2019-Dec-14 04:00 328 15 gusting 25 8.3
2019-Dec-14 03:55 323 13 gusting 25 8.3
2019-Dec-14 03:40 332 13 gusting 20 7.8
2019-Dec-14 03:35 325 10 gusting 17 7.8
2019-Dec-14 03:30 334 6 gusting 14 7.8
2019-Dec-14 03:25 348 12 gusting 19 7.8
2019-Dec-14 03:20 336 12 gusting 22 7.8
2019-Dec-14 03:15 349 11 gusting 18 7.2
2019-Dec-14 03:10 341 7.2
2019-Dec-14 03:05 336 7.2
2019-Dec-14 02:55 313 7.2
2019-Dec-14 02:45 343 3 gusting 10 7.2
2019-Dec-14 02:40 322 4 gusting 11 7.8
2019-Dec-14 02:35 337 5 gusting 15 7.8
2019-Dec-14 02:30 354 10 gusting 17 7.8
2019-Dec-14 01:50 011 10 gusting 18 7.8
2019-Dec-14 01:45 355 12 gusting 19 7.8
2019-Dec-14 01:40 003 11 gusting 17 7.8
2019-Dec-14 01:30 009 11 gusting 19 8.3
2019-Dec-14 01:25 354 11 gusting 17 8.3
2019-Dec-14 01:05 010 11 gusting 13 8.3
2019-Dec-14 00:30 004 8.9
2019-Dec-14 00:25 327 8.9
2019-Dec-14 00:20 332 8.9
2019-Dec-14 00:00 006 9.4
2019-Dec-13 23:55 014 6 gusting 11 9.4
2019-Dec-13 23:25 322 18 gusting 30 10.6
2019-Dec-13 23:15 327 19 gusting 35 10.6
2019-Dec-13 23:00 318 13 gusting 24 10.6
2019-Dec-13 22:55 326 13 gusting 26 10.6
2019-Dec-13 22:45 335 15 gusting 28 10.6
2019-Dec-13 22:25 340 15 gusting 33 11.1
2019-Dec-13 22:20 328 17 gusting 32 11.1
2019-Dec-13 22:10 339 17 gusting 37 11.1
2019-Dec-13 22:00 344 13 gusting 22 11.1
2019-Dec-13 21:50 331 19 gusting 34 11.1
2019-Dec-13 21:45 310 20 gusting 42 11.1
2019-Dec-13 21:35 317 15 gusting 34 11.1
2019-Dec-13 21:15 335 19 gusting 33 11.7
2019-Dec-13 20:55 319 19 gusting 41 11.7
2019-Dec-13 20:40 318 13 gusting 33 11.7
2019-Dec-13 20:25 311 15 gusting 27 11.7
2019-Dec-13 20:20 315 14 gusting 42 11.7
2019-Dec-13 20:10 287 15 gusting 33 11.7
2019-Dec-13 20:05 303 14 gusting 30 11.7
2019-Dec-13 20:00 289 24 gusting 40 11.7
2019-Dec-13 19:55 294 24 gusting 40 11.7
2019-Dec-13 19:50 305 19 gusting 33 11.7
2019-Dec-13 19:40 319 19 gusting 34 11.7
2019-Dec-13 19:30 298 22 gusting 44 12.2
2019-Dec-13 19:10 308 22 gusting 44 11.7
2019-Dec-13 19:05 294 20 gusting 44 11.7
2019-Dec-13 19:00 295 21 gusting 44 11.7
2019-Dec-13 18:55 302 27 gusting 42 12.2
2019-Dec-13 18:50 299 27 gusting 46 12.2
2019-Dec-13 18:40 300 19 gusting 42 12.2
2019-Dec-13 18:35 316 21 gusting 39 12.2
2019-Dec-13 18:25 300 22 gusting 59 12.2
2019-Dec-13 18:05 308 26 gusting 50 12.8
2019-Dec-13 17:45 300 14 gusting 33 12.8
2019-Dec-13 17:35 310 26 gusting 62 12.8
2019-Dec-13 17:30 311 13 gusting 35 12.8
2019-Dec-13 17:10 326 7 gusting 26 12.8
2019-Dec-13 16:45 311 20 gusting 46 13.9
2019-Dec-13 16:25 270 20 gusting 45 12.8
2019-Dec-13 16:20 280 33 gusting 51 12.2
2019-Dec-13 16:10 293 32 gusting 104 12.2
2019-Dec-13 15:55 279 33 gusting 53 14.4
2019-Dec-13 15:20 252 13 gusting 48 15.6
2019-Dec-13 15:15 257 30 gusting 64 15.6
2019-Dec-13 15:05 244 25 gusting 57 15.6